IRIDIUM 173

Last updated on Tue Sep 22 2026 00:03:21 GMT+0000 (Coordinated Universal Time)

1 43925U 19002D 26263.63003475 .00000029 00000+0 31166-5 0 9994 2 43925 86.3969 313.6875 0002271 93.1655 266.9801 14.34217434402630
UTC large
Height (km)
Speed (km/s)
/
Latitude / Longitude
Inclination (degrees)
Orbital Period (minutes)
Azimuth
Elevation
Range (km)
Doppler Factor

Next 0 passes for location: London (51.5072 / 0.1276)

No passes found over London.
IRIDIUM 173